Location: Buffign�court
(47.8126°N, 6.0176°E)
Time: 02:43:43
(UTC+00:00)

Cosmos 2034 Rocket - Pass Details

Date: 16 June 2021
Orbit: 957 x 1001 km, 82.9° (Epoch: 04 August)

Event Time Altitude Azimuth Distance (km) Brightness Sun altitude
Rises 22:57:31 0° 352° (N) 3,676 8.8 -18.3°
Reaches altitude 10° 23:00:04 10° 355° (N) 2,719 7.6 -18.3°
Maximum altitude 23:06:16 68° 79° (E) 1,034 4.1 -18.5°
Enters shadow 23:09:31 29° 154° (SSE) 1,681 4.7 -18.5°
